Home > Weather > Glasgow > Past weeks

Flag for United Kingdom Weather for the Past 2 Weeks in Glasgow, Scotland, United Kingdom

Now
45 °F

Light rain. Passing clouds.


Feels Like: 38 °F
Forecast: 42 / 50 °F
Wind: 15 mph from West

Location: Glasgow Airport

Current Time: May 2, 2016 at 11:32:20 PM

Latest Report: May 2, 2016 at 10:50 PM


Visibility: N/A

Pressure: 29.95 "Hg

Humidity: 76%

Dew Point: 37 °F

Location of GlasgowLocation

Historic Weather in Glasgow — Graph

°F

Glasgow Temperature Yesterday

Maximum temperature yesterday: 55 °F (at 3:20 PM)
Minimum temperature yesterday: 43 °F (at 12:20 AM)
Average temperature yesterday: 50 °F

High & Low Weather Summary for the Past Weeks

 TemperatureHumidityPressure
High64 °F (Apr 21, 2:20 PM)100% (Apr 21, 5:50 AM)30.48 "Hg (Apr 21, 5:50 AM)
Low25 °F (Apr 27, 5:20 AM)34% (Apr 21, 2:20 PM)29.53 "Hg (Apr 28, 4:50 PM)
Average45 °F69%30.05 "Hg
* Reported Apr 17 9:20 PM — May 2 9:50 PM, Glasgow, Weather by CustomWeather, © 2016

Note: Actual official high and low records may vary slightly from our data, if they occured in-between our weather recording intervals... More about our weather records

Advertising

Glasgow Weather History for the Previous 24 Hours

Scroll right to see more
 ConditionsComfort  
Time TempWeatherWind HumidityBarometerVisibility
9:50 PM
Mon, May 2
45 °FBroken clouds.16 mph76%29.95 "HgN/A
9:20 PM45 °FMostly cloudy.16 mph76%29.92 "HgN/A
8:50 PM45 °FPassing clouds.17 mph76%29.92 "HgN/A
8:20 PM45 °FPassing clouds.18 mph76%29.89 "HgN/A
7:50 PM46 °FPassing clouds.16 mph71%29.89 "HgN/A
7:20 PM46 °FPassing clouds.15 mph71%29.89 "HgN/A
6:50 PM48 °FScattered clouds.15 mph71%29.86 "HgN/A
6:20 PM46 °FLight rain. Scattered clouds.17 mph76%29.86 "Hg3 mi
5:50 PM45 °FLight rain. Broken clouds.10 mph81%29.86 "HgN/A
5:20 PM52 °FPartly sunny.15 mph58%29.83 "HgN/A
4:50 PM52 °FPartly sunny.18 mph58%29.83 "HgN/A
4:20 PM54 °FScattered clouds.21 mph54%29.83 "HgN/A
3:50 PM54 °FScattered clouds.21 mph58%29.83 "HgN/A
3:20 PM50 °FPartly sunny.18 mph71%29.83 "HgN/A
2:50 PM52 °FScattered clouds.18 mph62%29.80 "HgN/A
2:20 PM52 °FScattered clouds.26 mph58%29.80 "HgN/A
1:50 PM54 °FPassing clouds.25 mph54%29.80 "HgN/A
1:20 PM52 °FPartly sunny.24 mph62%29.80 "HgN/A
12:50 PM52 °FScattered clouds.20 mph67%29.80 "HgN/A
12:20 PM52 °FPartly sunny.22 mph67%29.77 "HgN/A
11:50 AM48 °FLight rain. Broken clouds.21 mph76%29.77 "HgN/A
11:20 AM48 °FPartly sunny.22 mph71%29.77 "HgN/A
10:50 AM50 °FPartly sunny.21 mph71%29.74 "HgN/A
10:20 AM50 °FPartly sunny.21 mph71%29.74 "HgN/A
9:50 AM52 °FPartly sunny.15 mph77%29.74 "HgN/A
9:20 AM50 °FPassing clouds.12 mph88%29.74 "HgN/A
8:50 AM48 °FLight rain. Broken clouds.12 mph87%29.71 "HgN/A
8:20 AM48 °FLight rain. Mostly cloudy.9 mph94%29.71 "HgN/A
7:20 AM48 °FLight rain. Mostly cloudy.12 mph94%29.71 "HgN/A
6:20 AM50 °FLight rain. Passing clouds.20 mph94%29.71 "Hg6 mi
5:50 AM52 °FRain. Passing clouds.22 mph88%29.68 "Hg3 mi
5:20 AM52 °FLight rain. Mostly cloudy.23 mph88%29.68 "Hg3 mi
4:50 AM52 °FLight rain. Passing clouds.20 mph88%29.71 "Hg4 mi
4:20 AM54 °FLight rain. Overcast.17 mph82%29.74 "Hg4 mi
3:50 AM54 °FLight rain. Overcast.15 mph88%29.74 "HgN/A
3:20 AM54 °FLight rain. Overcast.16 mph88%29.77 "HgN/A
2:50 AM55 °FLight rain. Passing clouds.16 mph82%29.77 "HgN/A
2:20 AM55 °FCool.18 mph82%29.80 "HgN/A
1:50 AM55 °FLight rain. Overcast.17 mph82%29.80 "HgN/A
1:20 AM55 °FLight rain. Overcast.18 mph82%29.83 "HgN/A
12:50 AM55 °FLight rain. Passing clouds.18 mph82%29.83 "HgN/A
12:20 AM55 °FPassing clouds.20 mph82%29.86 "HgN/A
11:50 PM
Sun, May 1
55 °FPassing clouds.20 mph82%29.86 "HgN/A
11:20 PM55 °FPassing clouds.17 mph88%29.86 "HgN/A
Weather by CustomWeather, © 2016

See weather overviewHow to use our weather pages